OpenBCM V1.08-5-g2f4a (Linux)

Packet Radio Mailbox

IZ3LSV

[San Dona' di P. JN]

 Login: GUEST





  
CX2SA  > KEP      11.12.19 01:02l 86 Lines 3614 Bytes #999 (0) @ ARL
BID : ARLK095
Read: GUEST
Subj: ARLK095 Keplerian data
Path: IZ3LSV<IQ2LB<IK1NHL<CX2SA
Sent: 191210/2331Z @:CX2SA.SAL.URY.SOAM #:20608 [Salto] FBB7.00e $:ARLK095
From: CX2SA@CX2SA.SAL.URY.SOAM
To  : KEP@ARL


ZCZC SK95
QST de W1AW
Keplerian Bulletin 95  ARLK095
From ARRL Headquarters
Newington, CT  December 10, 2019
To all radio amateurs

SB KEP ARL ARLK095
ARLK095 Keplerian data

Special thanks to AMSAT-NA (AMSAT.ORG) for the following Keplerian
data.

Decode 2-line elsets with the following key:
1 AAAAAU 00  0  0 BBBBB.BBBBBBBB  .CCCCCCCC  00000-0  00000-0 0  DDDZ
2 AAAAA EEE.EEEE FFF.FFFF GGGGGGG HHH.HHHH III.IIII JJ.JJJJJJJJKKKKKZ
KEY: A-CATALOGNUM B-EPOCHTIME C-DECAY D-ELSETNUM E-INCLINATION F-RAAN
G-ECCENTRICITY H-ARGPERIGEE I-MNANOM J-MNMOTION K-ORBITNUM Z-CHECKSUM

0 AO-07
1 7530U 74089B   19344.14109804 -.00000047  00000-0 -93256-5 0  9994
2 7530 101.7716 310.1714 0012388  11.7877 359.0760 12.53641116 62389
0 FO-29
1 24278U 96046B   19343.98473703 -.00000047  00000-0 -13905-4 0  9994
2 24278  98.5630 113.9791 0350861 148.1039 214.1878 13.53095194151374
0 ISS
1 25544U 98067A   19344.35016344  .00002733  00000-0  55664-4 0  9992
2 25544  51.6436 207.9460 0007267  20.2124 150.5546 15.50112199202585
0 SO-50
1 27607U 02058C   19343.92898306 -.00000042 +00000-0 +14900-4 0  9997
2 27607 064.5550 236.8821 0070198 222.2183 137.3503 14.75594036912619
0 CO-55
1 27844U 03031E   19343.98921376  .00000045  00000-0  39796-4 0  9994
2 27844  98.6836 349.5951 0008917 244.2887 115.7371 14.22209880853066
0 RS-22
1 27939U 03042A   19344.75015849  .00000051  00000-0  17763-4 0  9993
2 27939  98.0639 117.4234 0012108 229.3484 130.6674 14.66822821866202
0 RS-30
1 32953U 08025A   19344.69699102  .00000021  00000-0  75656-4 0  9996
2 32953  82.5056  35.9266 0020375 107.9253 252.4051 12.43092663524056
0 KKS-1
1 33499U 09002H   19343.82626716  .00000089  00000-0  21072-4 0  9990
2 33499  98.3341 187.9782 0009521  19.7622 340.3953 14.75486595584901
0 AO-71
1 37854U 11061E   19343.95625386  .00000699  00000-0  43525-4 0  9997
2 37854 101.7124 331.8693 0159496 268.1268  90.1672 15.06854290443236
0 AO-73
1 39444U 13066AE  19343.76982632  .00000213  00000-0  32384-4 0  9993
2 39444  97.5575 349.5816 0058168 174.8776 185.3046 14.82023930325715
0 UKUBE 1
1 40074U 14037F   19344.72417847  .00000225  00000-0  34197-4 0  9998
2 40074  98.4497 156.8159 0005321  25.9013 334.2475 14.84151639293615
0 XW-2A
1 40903U 15049E   19344.72501677  .00001357  00000-0  33357-4 0  9992
2 40903  97.3168  28.3104 0012039 226.6559 253.4932 15.42404020237226
0 XW-2F
1 40910U 15049M   19344.75255145  .00000721  00000-0  39211-4 0  9998
2 40910  97.4654 345.9551 0013359 305.1281 142.0899 15.17583482233560
0 XW-2B
1 40911U 15049N   19344.78585648  .00000688  00000-0  39250-4 0  9991
2 40911  97.4721 344.3914 0013018 316.0904  36.1158 15.15988788233429
0 IO-86
1 40931U 15052B   19344.08263282  .00000639  00000-0 -55991-7 0  9997
2 40931   5.9991 252.9666 0012722 102.2336 257.9387 14.76621579227076
0 CAS-4B
1 42759U 17034B   19344.55370818  .00000119  00000-0  20771-4 0  9992
2 42759  43.0206 350.3203 0012753 276.6901 229.1375 15.09698974137265
0 CAS-4A
1 42761U 17034D   19344.50588565  .00000126  00000-0  21153-4 0  9993
2 42761  43.0213 350.0081 0013139 276.5168 218.5880 15.09777040137254
0 AO-91
1 43017U 17073E   19343.98768093  .00000618  00000-0  54137-4 0  9992
2 43017  97.7250 258.5364 0256672 311.0546  46.8736 14.78736125111010
0 AO-92
1 43137U 18004AC  19344.72261045  .00000785  00000-0  35613-4 0  9991
2 43137  97.4696  51.9725 0009388  12.6570 347.4901 15.23760782106140

Keplerian bulletins are transmitted twice weekly from W1AW.  The
next scheduled transmission of these data will be Friday, December
13, 2019, at 2230z on Baudot and BPSK31.
NNNN


Read previous mail | Read next mail


 05.11.2025 02:01:58lGo back Go up